Location: Brantley
(31.5822°N, 86.2569°W)
Time: 07:06:08
(UTC+00:00)

Transit 2A Rocket - Pass Details

Date: 24 February 2026
Orbit: 583 x 900 km, 66.7° (Epoch: 8 March)

Event Time Altitude Azimuth Distance (km) Brightness Sun altitude
Rises 19:04:13 0° 189° (S) 3,427 9.1 46.2°
Reaches altitude 10° 19:06:43 10° 184° (S) 2,522 8.6 46.0°
Maximum altitude 19:12:24 50° 110° (ESE) 1,125 6.4 45.5°
Drops below altitude 10° 19:18:12 10° 37° (NE) 2,572 7.4 44.9°
Sets 19:20:46 0° 32° (NNE) 3,502 8.0 44.7°
